www.pogodaiklimat.ru

Погода и климат >> Архив погоды >> Австралия >> Coober Pedy Airport


ПОГОДА в Coober Pedy Airport

  • Прогноз погоды в Coober Pedy Airport
  • Монитор погоды в Coober Pedy Airport
  • Климат города

АРХИВ ПОГОДЫ в Coober Pedy Airport

Время (UTC), дата Ветер
(напр.,м/с)
 
Видим.   Явления Облачность Т
(С)
Тd
(С)
f
(%)
Тe
(С)
Тes
(С)
Комфортность P
(гПа)
Po
(гПа)
Тmin
(С)
Tmax
(С)
R
(мм)
R24
(мм)
S
(см)
04 23.04 Ю 3 н/о н/о +25.0 +15.6 56 +28 +28 жарко 1018.4 992.2
05 23.04 ЮВ 4 н/о н/о +25.4 +15.1 53 +28 +28 жарко 1017.9 991.7
06 23.04 ЮВ 4 н/о н/о +25.3 +15.6 55 +28 +28 жарко 1017.4 991.2
07 23.04 ЮВ 5 н/о н/о +25.6 +15.0 52 +28 +28 жарко 1017.1 990.9
08 23.04 ЮВ 5 н/о н/о +24.9 +15.0 54 +28 +28 жарко 1017.4 991.2
09 23.04 ЮВ 4 н/о н/о +23.4 +16.0 63 +28 +28 душно 1017.7 991.5
10 23.04 ЮВ 4 н/о н/о +22.2 +16.0 68 +26 +26 душно 1018.3 992.1
11 23.04 ЮВ 4 н/о н/о +21.4 +16.6 74 +25 +25 комфорт 1018.5 992.3
12 23.04 ЮВ 5 н/о н/о +20.8 +16.4 76 +24 +24 комфорт 1018.4 992.2
13 23.04 ЮВ 4 н/о н/о +20.4 +16.2 77 +23 +23 комфорт 1018.2 992.0
14 23.04 В 4 н/о н/о +19.8 +16.1 79 +22 +22 комфорт 1017.7 991.5
15 23.04 ЮВ 4 н/о н/о +19.6 +16.3 81 +22 +22 комфорт 1017.3 991.1
16 23.04 В 5 н/о н/о +19.3 +16.3 83 +21 +21 комфорт 1016.4 990.2
17 23.04 В 4 н/о н/о +19.2 +16.2 83 +21 +21 комфорт 1016.1 989.9
18 23.04 ЮВ 5 н/о н/о +20.3 +16.5 79 +23 +23 комфорт 1016.7 990.5
19 23.04 ЮВ 3 н/о н/о +18.9 +17.2 90 +20 +20 1016.7 990.5
20 23.04 ЮВ 4 н/о н/о +18.6 +17.3 92 +19 +19 1016.7 990.5
21 23.04 В 5 н/о н/о +18.5 +17.2 92 +19 +19 1016.7 990.5
22 23.04 В 5 н/о н/о +18.3 +17.0 92 +19 +19 1016.5 990.3
23 23.04 В 5 н/о н/о +18.9 +17.0 89 +20 +20 1016.3 990.1
00 24.04 В 5 н/о н/о +19.6 +17.7 89 +22 +22 комфорт 1016.1 989.9
01 24.04 В 5 н/о н/о +22.3 +17.9 76 +27 +27 душно 1016.1 989.9
02 24.04 В 4 н/о н/о +21.7 +18.5 82 +26 +26 душно 1015.6 989.4
03 24.04 Ю 3 н/о н/о +22.1 +17.7 76 +27 +27 душно 1015.1 988.9
04 24.04 Ю 5 н/о н/о +21.7 +18.1 80 +26 +26 душно 1014.2 988.1
05 24.04 Ю 4 н/о н/о +21.8 +17.6 77 +26 +26 душно 1013.5 987.4
06 24.04 Ю 7 н/о н/о +22.3 +18.5 79 +28 +28 душно 1013.6 987.5
07 24.04 Ю 9 н/о н/о +20.6 +17.8 84 +24 +24 комфорт 1014.0 987.9
08 24.04 Ю 6 н/о н/о +20.1 +17.7 86 +23 +23 комфорт 1014.6 988.5
09 24.04 Ю 6 н/о н/о +19.4 +17.4 88 +21 +21 комфорт 1015.4 989.2
10 24.04 Ю 6 н/о н/о +18.7 +17.5 93 +19 +19 1016.3 990.1
11 24.04 Ю 6 н/о н/о +18.4 +17.6 95 +19 +19 1016.4 990.2
12 24.04 Ю 8 н/о н/о +17.6 +16.8 95 +17 +17 1016.3 990.1
13 24.04 Ю 5 н/о н/о +17.4 +16.3 93 +17 +17 1017.0 990.8
14 24.04 Ю 6 н/о н/о +17.0 +16.0 94 +16 +16 1016.6 990.4
15 24.04 Ю 6 н/о н/о +16.3 +15.5 95 +15 +15 1016.2 990.0
16 24.04 Ю 4 н/о н/о +15.9 +15.1 95 +15 +15 1016.4 990.2
17 24.04 ЮЗ 4 н/о н/о +16.1 +15.5 96 +15 +15 1016.6 990.4
18 24.04 Ю 6 н/о н/о +16.2 +15.4 95 +15 +15 1016.4 990.2
19 24.04 Ю 5 н/о н/о +15.9 +14.9 94 +15 +15 1016.5 990.3
20 24.04 Ю 5 н/о н/о +15.6 +14.6 94 +14 +14 1017.1 990.9
21 24.04 Ю 4 н/о н/о +14.6 +13.5 93 +13 +13 1017.5 991.3
22 24.04 Ю 4 н/о н/о +14.8 +13.7 93 +14 +14 1018.2 992.0
23 24.04 Ю 6 н/о н/о +15.5 +13.7 89 +14 +14 1019.1 992.8
00 25.04 Ю 7 н/о н/о +16.9 +13.0 78 +16 +16 1019.1 992.8
01 25.04 ЮЗ 8 н/о н/о +17.8 +12.3 70 +17 +17 1019.1 992.8
02 25.04 ЮЗ 7 н/о н/о +18.3 +12.5 69 +18 +18 1018.9 992.6
03 25.04 ЮЗ 7 н/о н/о +18.7 +12.2 66 +19 +19 1018.3 992.1
04 25.04 ЮЗ 8 н/о н/о +19.0 +12.3 65 +19 +19 1017.5 991.3
05 25.04 ЮЗ 8 н/о н/о +20.3 +12.8 62 +22 +22 комфорт 1017.0 990.8
06 25.04 ЮЗ 8 н/о н/о +20.3 +11.2 56 +21 +21 комфорт 1017.1 990.9
07 25.04 ЮЗ 8 н/о н/о +20.7 +9.0 47 +22 +22 комфорт 1017.3 991.1
08 25.04 ЮЗ 8 н/о н/о +20.0 +9.3 50 +21 +21 комфорт 1017.6 991.4
09 25.04 ЮЗ 7 н/о н/о +18.6 +9.9 57 +18 +18 1018.0 991.8
10 25.04 ЮЗ 5 н/о н/о +17.2 +11.0 67 +17 +17 1018.9 992.6
11 25.04 ЮЗ 4 н/о н/о +15.4 +11.2 76 +15 +15 1019.7 993.4
12 25.04 З 3 н/о н/о +13.7 +11.2 85 +12 +12 1020.2 993.9
13 25.04 ЮЗ 4 н/о н/о +14.1 +10.3 78 +13 +13 1020.9 994.6
14 25.04 ЮЗ 4 н/о н/о +12.4 +10.0 85 +11 +11 1021.1 994.8
15 25.04 З 4 н/о н/о +11.7 +9.8 88 +10 +10 1021.2 994.9
16 25.04 ЮЗ 6 н/о н/о +13.1 +9.7 80 +11 +11 1021.1 994.8
17 25.04 ЮЗ 5 н/о н/о +12.3 +10.0 86 +10 +10 1021.4 995.1
18 25.04 ЮЗ 6 н/о н/о +12.0 +10.2 89 +9 +9 1021.1 994.8
19 25.04 ЮЗ 6 н/о н/о +11.6 +10.5 93 +9 +9 1021.4 995.1
20 25.04 ЮЗ 6 н/о н/о +11.7 +10.6 93 +9 +9 1021.9 995.6
21 25.04 ЮЗ 5 н/о н/о +11.5 +10.6 94 +9 +9 1022.7 996.3
22 25.04 ЮЗ 5 н/о н/о +11.8 +11.0 95 +9 +9 1023.2 996.8
23 25.04 ЮЗ 7 н/о н/о +13.3 +11.5 89 +11 +11 1023.9 997.5
00 26.04 Ю 9 н/о н/о +14.9 +10.5 75 +13 +13 1024.4 998.0
01 26.04 Ю 9 н/о н/о +16.3 +8.3 59 +15 +15 1024.6 998.2
02 26.04 Ю 9 н/о н/о +16.9 +6.7 51 +16 +16 1024.5 998.1
03 26.04 Ю 7 н/о н/о +17.4 +6.3 48 +17 +17 1023.9 997.5
04 26.04 Ю 8 н/о н/о +18.4 +6.6 46 +18 +18 1023.4 997.0
05 26.04 Ю 9 н/о н/о +18.7 +5.5 42 +18 +18 1022.5 996.2
06 26.04 Ю 10 н/о н/о +18.9 +6.1 43 +18 +18 1022.3 996.0
07 26.04 Ю 9 н/о н/о +18.3 +5.8 44 +17 +17 1022.5 996.2
08 26.04 Ю 8 н/о н/о +17.5 +5.1 44 +16 +16 1022.7 996.3
09 26.04 Ю 6 н/о н/о +16.4 +6.2 51 +15 +15 1023.2 996.8
10 26.04 Ю 4 н/о н/о +15.2 +7.3 59 +14 +14 1023.9 997.5
11 26.04 ЮВ 4 н/о н/о +14.1 +7.6 65 +13 +13 1024.8 998.4
12 26.04 ЮВ 4 н/о н/о +13.2 +7.6 69 +12 +12 1025.2 998.8
13 26.04 Ю 3 н/о н/о +12.3 +7.8 74 +11 +11 1025.7 999.3
14 26.04 ЮВ 4 н/о н/о +11.7 +7.2 74 +10 +10 1026.4 1000.0
15 26.04 ЮВ 3 н/о н/о +10.9 +7.0 77 +9 +9 1026.3 999.9
16 26.04 ЮВ 3 н/о н/о +10.2 +7.1 81 +8 +8 1026.4 1000.0
17 26.04 Ю 4 н/о н/о +9.1 +7.1 87 +6 +6 1026.9 1000.4
18 26.04 Ю 4 н/о н/о +9.0 +7.3 89 +6 +6 1026.7 1000.2
19 26.04 Ю 4 н/о н/о +8.7 +7.2 90 +5 +5 1026.7 1000.2
20 26.04 Ю 4 н/о н/о +8.6 +7.1 90 +5 +5 1027.1 1000.6
21 26.04 ЮВ 4 н/о н/о +8.4 +7.0 91 +5 +5 1027.5 1001.0
22 26.04 ЮВ 3 н/о н/о +8.7 +6.8 88 +6 +6 1028.0 1001.5
23 26.04 ЮВ 4 н/о н/о +11.3 +7.2 76 +9 +9 1028.5 1002.0
00 27.04 ЮВ 6 н/о н/о +13.2 +6.8 65 +11 +11 1029.1 1002.6
01 27.04 ЮВ 6 н/о н/о +14.8 +5.3 53 +13 +13 1029.1 1002.6
02 27.04 ЮВ 6 н/о н/о +16.2 +4.6 46 +15 +15 1028.4 1001.9
03 27.04 ЮВ 6 н/о н/о +16.1 +4.2 45 +15 +15 1027.7 1001.2
04 27.04 Ю 7 н/о н/о +16.7 +3.1 40 +16 +16 1027.0 1000.5
05 27.04 Ю 6 н/о н/о +17.8 +4.4 41 +17 +17 1026.0 999.6
06 27.04 Ю 6 н/о н/о +18.2 +4.0 39 +18 +18 1026.1 999.7
07 27.04 ЮВ 6 н/о н/о +17.9 +3.4 38 +17 +17 1025.7 999.3
08 27.04 ЮВ 5 н/о н/о +17.2 +2.8 38 +17 +17 1025.8 999.4
09 27.04 ЮВ 4 н/о н/о +15.7 +4.4 47 +15 +15 1026.4 1000.0
10 27.04 ЮВ 4 н/о н/о +14.4 +5.7 56 +13 +13 1026.8 1000.3
11 27.04 ЮВ 3 н/о н/о +13.0 +6.1 63 +12 +12 1027.5 1001.0
12 27.04 ЮВ 3 н/о н/о +12.2 +6.3 67 +11 +11 1028.0 1001.5
13 27.04 ЮВ 4 н/о н/о +11.5 +6.2 70 +10 +10 1028.2 1001.7
14 27.04 ЮВ 3 н/о н/о +10.7 +6.3 74 +9 +9 1027.9 1001.4
15 27.04 ЮВ 3 н/о н/о +10.0 +6.2 77 +8 +8 1027.5 1001.0
16 27.04 ЮВ 2 н/о н/о +10.0 +6.2 77 +9 +9 1027.3 1000.8
17 27.04 ЮВ 3 н/о н/о +9.6 +6.0 78 +8 +8 1027.2 1000.7
18 27.04 ЮВ 4 н/о н/о +9.3 +6.0 80 +7 +7 1027.0 1000.5
19 27.04 ЮВ 4 н/о н/о +8.7 +5.8 82 +6 +6 1027.2 1000.7
20 27.04 ЮВ 3 н/о н/о +8.5 +5.8 83 +6 +6 1027.3 1000.8
21 27.04 ЮВ 3 н/о н/о +8.0 +5.5 84 +5 +5 1027.5 1001.0
22 27.04 ЮВ 4 н/о н/о +9.1 +6.0 81 +6 +6 1027.9 1001.4
23 27.04 ЮВ 4 н/о н/о +12.0 +6.5 69 +10 +10 1028.4 1001.9
00 28.04 В 6 н/о н/о +14.4 +7.7 64 +13 +13 1028.6 1002.1
01 28.04 В 5 н/о н/о +15.5 +7.3 58 +14 +14 1028.7 1002.2
02 28.04 В 4 н/о н/о +17.1 +5.7 47 +17 +17 1028.1 1001.6
03 28.04 В 5 н/о н/о +18.2 +5.4 43 +18 +18 1027.0 1000.5
04 28.04 В 3 н/о н/о +18.9 +5.0 40 +20 +20 1025.9 999.5
05 28.04 В 4 н/о н/о +19.5 +5.2 39 +20 +20 1025.1 998.7
06 28.04 ЮВ 4 н/о н/о +19.4 +4.4 37 +20 +20 1024.7 998.3
07 28.04 ЮВ 3 н/о н/о +19.4 +4.4 37 +20 +20 1025.2 998.8
08 28.04 ЮВ 4 н/о н/о +18.6 +4.8 40 +19 +19 1025.2 998.8
09 28.04 ЮВ 4 н/о н/о +17.4 +5.7 46 +17 +17 1025.4 999.0
10 28.04 ЮВ 4 н/о н/о +16.0 +7.0 55 +15 +15 1025.7 999.3
11 28.04 ЮВ 4 н/о н/о +15.5 +7.5 59 +15 +15 1025.9 999.5
12 28.04 ЮВ 4 н/о н/о +14.8 +7.8 63 +14 +14 1025.7 999.3
13 28.04 ЮВ 5 н/о н/о +14.7 +7.7 63 +13 +13 1025.6 999.2
14 28.04 В 4 н/о н/о +13.3 +7.5 68 +12 +12 1025.4 999.0
15 28.04 В 5 н/о н/о +12.8 +7.5 70 +11 +11 1024.6 998.2
16 28.04 ЮВ 3 н/о н/о +12.3 +7.4 72 +11 +11 1025.2 998.8
17 28.04 ЮВ 3 н/о н/о +11.0 +6.9 76 +9 +9 1025.0 998.6
18 28.04 В 3 н/о н/о +11.0 +7.1 77 +9 +9 1024.5 998.1
19 28.04 ЮВ 3 н/о н/о +10.6 +6.9 78 +9 +9 1024.6 998.2
20 28.04 В 4 н/о н/о +10.1 +7.0 81 +8 +8 1024.5 998.1
21 28.04 ЮВ 3 н/о н/о +10.8 +7.1 78 +9 +9 1025.3 998.9
22 28.04 ЮВ 3 н/о н/о +10.5 +7.4 81 +8 +8 1025.7 999.3
23 28.04 ЮВ 4 н/о н/о +11.9 +7.8 76 +10 +10 1026.2 999.8
00 29.04 В 5 н/о н/о +15.3 +8.5 64 +14 +14 1026.1 999.7
01 29.04 В 5 н/о н/о +16.9 +7.3 53 +16 +16 1026.0 999.6
02 29.04 В 5 н/о н/о +17.8 +6.0 46 +17 +17 1025.1 998.7
03 29.04 В 4 н/о н/о +19.2 +6.0 42 +20 +20 1024.2 997.8
04 29.04 В 5 н/о н/о +19.2 +5.3 40 +19 +19 1023.2 996.8
05 29.04 В 3 н/о н/о +19.9 +5.5 39 +21 +21 комфорт 1022.4 996.1
06 29.04 В 4 н/о н/о +20.2 +5.1 37 +21 +21 комфорт 1022.0 995.7
07 29.04 В 4 н/о н/о +20.2 +5.1 37 +21 +21 комфорт 1021.9 995.6
08 29.04 В 4 н/о н/о +19.5 +5.2 39 +20 +20 1022.1 995.8
09 29.04 В 3 н/о н/о +17.9 +6.1 46 +18 +18 1022.5 996.2
10 29.04 В 3 н/о н/о +16.8 +6.3 50 +17 +17 1022.7 996.3
11 29.04 В 3 н/о н/о +15.7 +7.0 56 +15 +15 1022.9 996.5
12 29.04 В 3 н/о н/о +14.8 +6.9 59 +14 +14 1023.0 996.6
13 29.04 В 3 н/о н/о +14.6 +7.2 61 +14 +14 1023.1 996.7
14 29.04 В 3 н/о н/о +14.0 +7.5 65 +13 +13 1022.3 996.0
15 29.04 В 3 н/о н/о +13.6 +7.2 65 +13 +13 1021.8 995.5
16 29.04 В 3 н/о н/о +12.8 +7.0 68 +12 +12 1021.5 995.2
17 29.04 В 2 н/о н/о +12.2 +7.1 71 +11 +11 1021.2 994.9
18 29.04 штиль 0 н/о н/о +11.9 +7.2 73 +11 +11 1021.0 994.7
19 29.04 ЮВ 4 н/о н/о +11.8 +8.1 78 +10 +10 1020.9 994.6
20 29.04 В 4 н/о н/о +11.3 +8.2 81 +9 +9 1021.2 994.9
21 29.04 ЮВ 4 н/о н/о +10.9 +8.0 82 +9 +9 1021.3 995.0
22 29.04 В 3 н/о н/о +10.9 +8.0 82 +9 +9 1021.8 995.5
23 29.04 ЮВ 4 н/о н/о +13.8 +8.6 71 +13 +13 1021.9 995.6
00 30.04 В 5 н/о н/о +16.3 +8.3 59 +15 +15 1021.8 995.5
01 30.04 В 4 н/о н/о +18.5 +8.2 51 +19 +19 1021.7 995.4
02 30.04 СВ 4 н/о н/о +20.3 +7.7 44 +21 +21 комфорт 1021.0 994.7

 

Местоположение метеостанции Coober Pedy Airport (Южная Австралия, Австралия): широта -29.03 долгота 134.71 высота над уровнем моря 226 м.

В архиве по умолчанию представлена погода в Coober Pedy Airport за последнюю неделю. Архивные данные за месяц целиком и за предыдущие месяцы, начиная с января 2011 года, Вы можете получить, выбрав интересующий диапазон дат из раскрывающегося списка и нажав кнопку "Ввод!".

Внимание! Время в таблицах - всемирное. Для получения местного времени необходимо прибавить поправку, которая в Coober Pedy Airport равна 9.5 ч.

Смотрите также архив погоды в соседних городах и на ближайших метеорологических станциях:

Погода в Oodnadatta Airport (Южная Австралия, Австралия) (180 км)
Погода в Tarcoola Aero (Южная Австралия, Австралия) (188 км)
Погода в Olympic Dam Aerodrome (Южная Австралия, Австралия) (264 км)
Погода в Woomera Aerodrome (Южная Австралия, Австралия) (311 км)
Погода в Marree Aero (Южная Австралия, Австралия) (332 км)
Погода в Ceduna Amo (Южная Австралия, Австралия) (358 км)
Погода в Pukatja (Южная Австралия, Австралия) (395 км)
Погода в Leigh Creek Airport (Южная Австралия, Австралия) (398 км)
Погода в Minnipa Pirsa (Южная Австралия, Австралия) (427 км)
Погода в Wudinna Aero (Южная Австралия, Австралия) (453 км)

Пояснения к столбцам:

Ветер - указаны скорость ветра в м/с - средняя за 10 мин, порывы в срок и между сроками (в фигурных скобках) и направление, откуда дует ветер: С - северный, СВ - северо-восточный, В - восточный, ЮВ - юго-восточный, Ю - южный, ЮЗ - юго-западный, З - западный, СЗ - северо-западный.
Видимость - горизонтальная дальность видимости в метрах или километрах. При видимости от 1 до 10 км при отсутствии осадков обычно наблюдается дымка, при ухудшении видимости до 1 км и менее - туман. В сухую погоду видимость может ухудшаться дымом, пылью или мглою.
Явления - указаны атмосферные явления, наблюдавшиеся в срок или в последний час перед сроком; фигурными скобками обозначены явления, наблюдавшиеся между сроками (за 1-3 часа до срока); квадратными скобками обозначены град или гололедные отложения с указанием их диаметра в мм.
Облачность - указаны через наклонную черту общая и нижняя облачность в баллах и высота нижней границы облаков в метрах; квадратными скобками обозначены формы облаков: Ci - перистые, Cs - перисто-слоистые, Cc - перисто-кучевые, Ac - высококучевые, As - высокослоистые, Sc - слоисто-кучевые, Ns - слоисто-дождевые, Cu - кучевые, Cb - кучево-дождевые. Подробнее классификацию облаков см. в Атласе облаков (PDF).
T - Температура воздуха - температура, измеренная на высоте 2 м над землей.
Td - Температура точки росы - температура, при понижении до которой содержащийся в воздухе водяной пар достигнет насыщения.
f - Относительная влажность воздуха - влажноcть воздуха, измеренная на высоте 2 м над землей.
Te - Эффективная температура - температура, которую ощущает одетый по сезону человек в тени. Характеристика душности погоды. При расчете учитывается влияние влажности воздуха и скорости ветра на теплоощущения человека.
Tes - Эффективная температура на солнце - температура, которую ощущает человек, с поправкой на солнечный нагрев. Характеристика знойности погоды. Зависит от высоты солнца над горизонтом, облачности и скорости ветра. Ночью, в пасмурную погоду, а также при ветре 12 м/с и более поправка равна нулю.
P - Атмосферное давление - приведенное к уровню моря атмосферное давление.
Po - Атмосферное давление - измеренное на уровне метеостанции атмосферное давление.
Tmin - Минимальная температура - минимум температуры воздуха на высоте 2 м над землей.
Tmax - Максимальная температура - максимум температуры воздуха на высоте 2 м над землей.
R - Количество осадков - Количество выпавших осадков за период времени, мм. При наведении курсора мыши на число - период времени, за который выпало указанное количество осадков.
R24 - Количество осадков - Количество выпавших осадков за 24 часа, мм.
S - Снежный покров - Высота снежного покрова, см. При наведении курсора мыши на число - состояние снежного покрова и степень покрытия местности в баллах.